#timestamp,LO_Frequency,Hit,StdDev 
1652004015.9,286047000.8,N
1652004035.7,286046998.1,N
1652004055.6,286047000.8,N
1652004075.4,286046999.9,N
1652004095.2,286047001.2,N
1652004115.1,286047000.3,N
1652004116.0,286047000.3,N
1652004135.8,286047001.0,N
1652004155.7,286046998.4,N
1652004175.5,286046999.5,N
1652004195.3,286046998.1,N
1652004215.2,286046999.1,N
1652004235.0,286046997.0,N
1652004235.9,286046997.0,N
1652004255.7,286046996.5,N
1652004275.6,286046996.6,N
1652004295.4,286046998.4,N
1652004315.3,286046999.2,N
1652004335.1,286046996.8,N
1652004355.8,286046997.1,N
1652004375.7,286046997.0,N
1652004395.5,286046997.1,N
1652004415.4,286046996.7,N
1652004435.2,286046996.8,N
1652004455.0,286046996.7,N
1652004455.9,286046996.7,N
1652004475.8,286046997.6,N
1652004495.6,286046997.8,N
1652004515.5,286046996.8,N
1652004535.3,286046997.1,N
1652004555.1,286046997.8,N
1652004575.9,286046997.2,N
1652004595.7,286046996.9,N
1652004615.5,286046999.5,N
1652004635.4,286046997.2,N
1652004655.2,286046997.9,N
1652004675.1,286046995.3,Y
1652004676.0,286046995.3,P
1652004695.8,286046996.6,N
1652004715.6,286046999.1,N
1652004735.5,286046999.3,N
1652004755.3,286046999.1,N
1652004775.1,286046996.6,N
1652004795.9,286046999.2,N
1652004815.7,286046997.0,N
1652004835.6,286046997.0,N
1652004855.4,286046999.4,N
1652004875.2,286046997.1,N
1652004895.1,286046997.8,N
1652004896.0,286046997.8,N
1652004915.8,286046999.5,N
1652004935.7,286046997.7,N
1652004955.5,286046997.7,N
1652004975.3,286046995.2,Y
1652004995.2,286046996.6,P
1652005015.0,286046999.4,N
1652005015.9,286046999.4,N
1652005035.8,286046998.2,N
1652005055.6,286046999.8,N
1652005075.4,286047000.0,N
1652005095.3,286047000.1,N
1652005115.1,286047000.9,N
1652005135.8,286046998.6,N
1652005155.7,286046998.3,N
1652005175.5,286047000.6,N
1652005195.4,286046998.3,N
1652005215.2,286046999.6,N
1652005235.0,286046999.4,N
1652005235.9,286046999.4,N
1652005255.8,286046999.2,N
1652005275.6,286046999.4,N
1652005295.5,286046998.9,N
1652005315.3,286046996.6,Y
1652005335.1,286046999.1,P
1652005355.9,286046999.4,P
1652005375.7,286046996.9,P
1652005395.5,286046997.2,N
1652005415.4,286046996.6,Y
1652005435.2,286047000.7,P
1652005455.1,286047000.7,N
1652005456.0,286047000.7,N
1652005475.8,286046999.9,N
1652005495.6,286047001.0,N
1652005515.5,286047000.9,N
1652005535.3,286046998.5,N
1652005555.1,286046998.1,N
1652005575.9,286047000.2,N
1652005595.7,286047000.7,N
1652005615.6,286047000.4,N
1652005635.4,286047000.8,N
1652005655.2,286046998.1,N
1652005675.1,286047000.8,N
1652005676.0,286047000.8,N
1652005695.8,286047000.5,N
1652005715.7,286047000.5,N
1652005735.5,286046998.3,N
1652005755.3,286047000.7,N
1652005775.2,286046998.6,N
1652005795.9,286046998.9,N
1652005815.7,286046999.3,N
1652005835.6,286046999.2,N
1652005855.4,286046998.9,N
1652005875.3,286046999.1,N
1652005895.1,286046997.8,N
1652005896.0,286046997.8,N
1652005915.8,286046999.2,N
1652005935.7,286046996.5,Y
1652005955.5,286046999.0,P
1652005975.3,286046998.7,P
1652005995.2,286047000.5,N
1652006015.0,286047001.0,N
1652006015.9,286047001.0,N
1652006035.8,286046998.2,N
1652006055.6,286046998.1,N
1652006075.4,286047001.1,N
1652006095.3,286047001.2,N
1652006115.1,286047000.9,N
1652006135.8,286047001.1,N
1652006155.7,286046998.1,N
1652006175.5,286047007.0,Y
1652006195.4,286047008.1,P
1652006215.2,286047014.4,P
1652006235.0,286047019.1,P
1652006235.9,286047019.1,N
1652006255.8,286047017.4,N
1652006275.6,286047016.7,N
1652006295.5,286047012.5,N
1652006315.3,286047012.7,N
1652006335.1,286047011.9,N
1652006355.9,286047012.3,N
1652006375.7,286047010.0,N
1652006395.5,286047008.0,N
1652006415.4,286047006.3,N
1652006435.2,286047009.1,N
1652006455.1,286047006.8,N
1652006456.0,286047006.8,N
1652006475.8,286047006.9,N
1652006495.6,286047007.4,N
1652006515.5,286047005.0,N
1652006535.3,286047005.5,N
1652006555.1,286047005.2,N
1652006575.9,286047005.0,N
1652006595.7,286047005.9,N
1652006615.6,286047001.8,N
1652006635.4,286047001.7,N
1652006655.2,286047004.3,N
1652006675.1,286047003.8,N
1652006676.0,286047003.8,N
1652006695.8,286047002.0,N
1652006715.6,286047002.2,N
1652006735.5,286047004.4,N
1652006755.3,286047004.2,N
1652006775.2,286047000.9,N
1652006795.9,286046998.5,N
1652006815.7,286046997.0,N
1652006835.6,286046999.2,N
1652006855.4,286046998.7,N
1652006875.2,286046999.3,N
1652006895.1,286046998.6,N
1652006896.0,286046998.6,N
1652006915.8,286046999.2,N
1652006935.7,286046999.2,N
1652006955.5,286046996.6,N
1652006975.4,286046996.8,N
1652006995.2,286046998.7,N
1652007015.0,286046999.2,N
1652007015.9,286046999.2,N
1652007035.8,286046999.4,N
1652007055.6,286046998.7,N
1652007075.5,286046998.9,N
1652007095.3,286046996.5,N
1652007115.1,286046996.5,N
1652007135.9,286046998.9,N
1652007155.7,286046998.9,N
1652007175.6,286047001.2,N
1652007195.4,286046998.6,N
1652007215.2,286047001.1,N
1652007235.1,286046999.0,N
1652007236.0,286046999.0,N
1652007255.8,286047000.8,N
1652007275.6,286047000.6,N
1652007295.5,286047003.2,N
1652007315.3,286047010.6,Y
1652007335.2,286047011.0,P
1652007355.9,286047008.0,N
1652007375.7,286047004.9,N
1652007395.6,286047003.5,N
1652007415.4,286047003.0,N
1652007435.3,286047005.7,N
1652007455.1,286047005.3,N
1652007475.8,286047005.9,N
1652007495.7,286047005.3,N
1652007515.5,286047006.0,N
1652007535.4,286047003.8,N
1652007555.2,286047002.9,N
1652007575.0,286047003.5,N
1652007575.9,286047003.5,N
1652007595.8,286047003.3,N
